Location: *
(45.1961°N, 1.9694°E)
Time: 06:03:52
(UTC+00:00)

MOS 1 Rocket - Pass Details

Date: 25 August 2019
Orbit: 616 x 829 km, 97.4° (Epoch: 21 September)

Event Time Altitude Azimuth Distance (km) Brightness Sun altitude
Rises 21:13:28 0° 17° (NNE) 3,362 7.2 -23.5°
Reaches altitude 10° 21:15:54 10° 23° (NNE) 2,436 6.4 -23.8°
Enters shadow 21:20:48 49° 84° (E) 1,068 3.9 -24.4°
